Regional Weather Roundup
Issued by NWS

Home | Current Version | Previous Version | Text Only | Print | Product List | Glossary On
Versions: 1 2 3 4 5 6 7 8 9 10 11 12 13 14 15 16 17 18 19 20 21 22 23 24 25 26 27 28 29 30 31 32 33 34 35 36 37 38 39 40 41 42 43 44 45 46 47 48 49 50
000
ASUS43 KLMK 261510
RWRKY
KENTUCKY REGIONAL WEATHER ROUNDUP
NATIONAL WEATHER SERVICE LOUISVILLE KY
1100 AM EDT THU APR 26 2018

NOTE "FAIR" INDICATES FEW OR NO CLOUDS BELOW 12,000 FEET
WITH NO SIGNIFICANT WEATHER AND/OR OBSTRUCTIONS TO VISIBILITY.

KYZ001>023-026-027-061>063-070>075-261600-
WESTERN AND SOUTH CENTRAL KENTUCKY

CITY           SKY/WX    TMP DP  RH WIND       PRES   REMARKS
PADUCAH        CLOUDY    55  44  66 NE6       29.90R
HENDERSON      PTSUNNY   58  38  47 NE10      29.94S
OWENSBORO      FAIR      57  36  45 NE9       29.94R
HOPKINSVILLE   FAIR      56  55  98 NE8       29.88S
BOWLING GREEN  CLOUDY    61  54  77 S7        29.91S
GLASGOW        FAIR      59  51  75 CALM      29.91S
$$

KYZ024-025-028>034-038-045-046-053-261600-
NORTH CENTRAL KENTUCKY

CITY           SKY/WX    TMP DP  RH WIND       PRES   REMARKS
LOUISVILLE/SDF CLOUDY    57  38  48 N5        29.93S
LOUISVILLE/LOU FAIR      56  40  55 N5        29.94S
FORT KNOX      FAIR      58  38  49 NE5       29.93S
$$

KYZ035>037-039>044-047>052-055>060-089>105-261600-
NORTHEAST KENTUCKY

CITY           SKY/WX    TMP DP  RH WIND       PRES   REMARKS
LEXINGTON      FAIR      56  45  66 CALM      29.93R
COVINGTON      FAIR      56  39  53 NE5       29.93S
FRANKFORT      FAIR      58  40  51 CALM      29.92S
$$

KYZ054-064>069-076>088-106>120-261600-
SOUTHEAST KENTUCKY

CITY           SKY/WX    TMP DP  RH WIND       PRES   REMARKS
JACKSON        FAIR      58  50  75 CALM      29.93S
LONDON         FAIR      55  51  86 S3        29.93R
SOMERSET       FAIR      55  50  82 CALM      29.94R
MIDDLESBORO    CLOUDY    54  51  91 CALM      29.94S
MONTICELLO     NOT AVBL
$$




USA.gov is the U.S. government's official web portal to all federal, state and local government web resources and services.